When you browse on this site, cookies collect data to enhance your experience and personalize the content and advertising you see.
Visit our Privacy Policy to learn more. By continuing to use the site, you agree to this use of cookies and data.
  • în România
  • Lista ţărilor
  • Pe 7 zile
  • Temperatura apei
  • Hartă satelitară
  • Meteo pe hartă
  • Widget-uri
  • user-avatar
    Intrare

    Meteo pe oră la Trenton

    Astăzi, 16 Februarie, Sâmbătă

    Timp Temperatura Precipitaţii Vânt Presiune Umiditate
    00:00 +5°C° 0 mm 4 m/s 754 mmHg 62%
    01:00 +7°C° 0 mm 3 m/s 754 mmHg 56%
    02:00 +5°C° 0 mm 3 m/s 755 mmHg 58%
    03:00 +3°C° 0 mm 3 m/s 755 mmHg 59%
    04:00 +1°C° 0 mm 4 m/s 755 mmHg 61%
    05:00 +1°C° 0 mm 3 m/s 756 mmHg 61%
    06:00 0°C° 0 mm 3 m/s 756 mmHg 62%
    07:00 -1°C° 0 mm 3 m/s 757 mmHg 63%
    08:00 0°C° 0 mm 3 m/s 757 mmHg 59%
    09:00 +1°C° 0 mm 3 m/s 757 mmHg 54%
    10:00 +1°C° 0 mm 3 m/s 757 mmHg 50%
    11:00 +2°C° 0 mm 3 m/s 757 mmHg 48%
    12:00 +3°C° 0 mm 3 m/s 757 mmHg 46%
    13:00 +4°C° 0 mm 3 m/s 757 mmHg 43%
    14:00 +4°C° 0 mm 3 m/s 757 mmHg 45%
    15:00 +5°C° 0 mm 3 m/s 757 mmHg 46%
    16:00 +5°C° 0 mm 4 m/s 757 mmHg 48%
    17:00 +4°C° 0 mm 4 m/s 758 mmHg 52%
    18:00 +2°C° 0 mm 3 m/s 759 mmHg 55%
    19:00 +1°C° 0 mm 3 m/s 759 mmHg 59%
    20:00 0°C° 0 mm 3 m/s 760 mmHg 60%
    21:00 -1°C° 0 mm 3 m/s 760 mmHg 60%
    22:00 -1°C° 0 mm 3 m/s 760 mmHg 61%
    23:00 -2°C° 0 mm 3 m/s 761 mmHg 61%

    Mâine, 17 Februarie, Duminică

    Timp Temperatura Precipitaţii Vânt Presiune Umiditate
    00:00 -2°C° 0 mm 3 m/s 761 mmHg 61%
    01:00 -4°C° 0 mm 3 m/s 762 mmHg 61%
    02:00 -4°C° 0 mm 3 m/s 762 mmHg 60%
    03:00 -3°C° 0 mm 2 m/s 762 mmHg 60%
    04:00 -3°C° 0 mm 2 m/s 762 mmHg 60%
    05:00 -3°C° 0 mm 2 m/s 762 mmHg 60%
    06:00 -3°C° 0 mm 2 m/s 762 mmHg 60%
    07:00 -1°C° 0 mm 1 m/s 763 mmHg 60%
    08:00 0°C° 0 mm 1 m/s 763 mmHg 56%
    09:00 +1°C° 0 mm 1 m/s 763 mmHg 52%
    10:00 +2°C° 0 mm 1 m/s 763 mmHg 47%
    11:00 +4°C° 0 mm 1 m/s 763 mmHg 44%
    12:00 +5°C° 0 mm 1 m/s 763 mmHg 41%
    13:00 +6°C° 0 mm 1 m/s 762 mmHg 38%
    14:00 +5°C° 0 mm 2 m/s 762 mmHg 40%
    15:00 +6°C° 0 mm 2 m/s 761 mmHg 42%
    16:00 +5°C° 0 mm 3 m/s 761 mmHg 44%
    17:00 +4°C° 0 mm 3 m/s 761 mmHg 52%
    18:00 +2°C° 0 mm 3 m/s 761 mmHg 60%
    19:00 +1°C° 0 mm 3 m/s 761 mmHg 68%
    20:00 +1°C° 1.1 mm 3 m/s 760 mmHg 76%
    21:00 +2°C° 1.1 mm 2 m/s 759 mmHg 84%
    22:00 +2°C° 1.1 mm 2 m/s 759 mmHg 92%
    23:00 +2°C° 0.4 mm 2 m/s 758 mmHg 94%

    Poimâine, 18 Februarie, Luni

    Timp Temperatura Precipitaţii Vânt Presiune Umiditate
    00:00 +2°C° 0.4 mm 2 m/s 757 mmHg 95%
    01:00 +2°C° 0.4 mm 2 m/s 756 mmHg 97%
    02:00 +3°C° 0.5 mm 2 m/s 756 mmHg 98%
    03:00 +3°C° 0.5 mm 2 m/s 755 mmHg 98%
    04:00 +4°C° 0.5 mm 1 m/s 754 mmHg 99%
    05:00 +4°C° 0.2 mm 1 m/s 754 mmHg 99%
    06:00 +4°C° 0.2 mm 1 m/s 754 mmHg 99%
    07:00 +4°C° 0.2 mm 1 m/s 754 mmHg 99%
    08:00 +4°C° 0 mm 2 m/s 754 mmHg 95%
    09:00 +5°C° 0 mm 2 m/s 755 mmHg 91%
    10:00 +5°C° 0 mm 3 m/s 755 mmHg 87%
    11:00 +5°C° 0 mm 4 m/s 755 mmHg 82%
    12:00 +5°C° 0 mm 5 m/s 756 mmHg 76%
    13:00 +5°C° 0 mm 6 m/s 756 mmHg 71%
    14:00 +4°C° 0 mm 6 m/s 757 mmHg 69%
    15:00 +3°C° 0 mm 6 m/s 758 mmHg 66%
    16:00 +3°C° 0 mm 7 m/s 759 mmHg 64%
    17:00 +1°C° 0 mm 6 m/s 761 mmHg 64%
    18:00 -1°C° 0 mm 6 m/s 762 mmHg 65%
    19:00 -2°C° 0 mm 5 m/s 764 mmHg 66%
    20:00 -2°C° 0 mm 5 m/s 765 mmHg 65%
    21:00 -4°C° 0 mm 5 m/s 766 mmHg 64%
    22:00 -3°C° 0 mm 4 m/s 767 mmHg 63%
    23:00 -4°C° 0 mm 4 m/s 768 mmHg 62%

    19 Februarie, Marţi

    Timp Temperatura Precipitaţii Vânt Presiune Umiditate
    00:00 -5°C° 0 mm 5 m/s 768 mmHg 62%
    01:00 -6°C° 0 mm 5 m/s 769 mmHg 61%
    02:00 -5°C° 0 mm 4 m/s 769 mmHg 61%
    03:00 -5°C° 0 mm 4 m/s 769 mmHg 61%
    04:00 -7°C° 0 mm 4 m/s 770 mmHg 61%
    05:00 -6°C° 0 mm 3 m/s 770 mmHg 60%
    06:00 -6°C° 0 mm 3 m/s 771 mmHg 60%
    07:00 -5°C° 0 mm 3 m/s 772 mmHg 59%
    08:00 -5°C° 0 mm 3 m/s 772 mmHg 56%
    09:00 -4°C° 0 mm 3 m/s 773 mmHg 52%
    10:00 -4°C° 0 mm 4 m/s 773 mmHg 49%
    11:00 -3°C° 0 mm 4 m/s 773 mmHg 46%
    12:00 -1°C° 0 mm 3 m/s 773 mmHg 43%
    13:00 0°C° 0 mm 3 m/s 772 mmHg 40%
    14:00 0°C° 0 mm 3 m/s 772 mmHg 40%
    15:00 0°C° 0 mm 3 m/s 772 mmHg 41%
    16:00 +1°C° 0 mm 3 m/s 772 mmHg 41%
    17:00 +1°C° 0 mm 2 m/s 773 mmHg 45%
    18:00 -1°C° 0 mm 2 m/s 773 mmHg 49%
    19:00 0°C° 0 mm 1 m/s 773 mmHg 54%
    20:00 0°C° 0 mm 1 m/s 773 mmHg 55%
    21:00 -2°C° 0 mm 2 m/s 773 mmHg 56%
    22:00 -3°C° 0 mm 2 m/s 773 mmHg 57%
    23:00 -3°C° 0 mm 2 m/s 773 mmHg 56%

    20 Februarie, Miercuri

    Timp Temperatura Precipitaţii Vânt Presiune Umiditate
    00:00 -1°C° 0 mm 1 m/s 773 mmHg 55%
    01:00 -1°C° 0 mm 1 m/s 773 mmHg 54%
    02:00 -1°C° 0 mm 1 m/s 773 mmHg 54%
    03:00 -1°C° 0 mm 1 m/s 773 mmHg 53%
    04:00 -1°C° 0 mm 1 m/s 773 mmHg 52%
    05:00 -1°C° 0 mm 1 m/s 773 mmHg 52%
    06:00 -3°C° 0 mm 2 m/s 773 mmHg 51%
    07:00 -3°C° 0 mm 2 m/s 772 mmHg 51%
    08:00 -3°C° 0 mm 2 m/s 772 mmHg 51%
    09:00 -2°C° 0 mm 2 m/s 772 mmHg 51%
    10:00 -2°C° 0 mm 2 m/s 772 mmHg 51%
    11:00 -2°C° 0.4 mm 2 m/s 772 mmHg 59%
    12:00 -2°C° 0.4 mm 3 m/s 771 mmHg 67%
    13:00 -2°C° 0.4 mm 3 m/s 770 mmHg 75%
    14:00 -2°C° 0.8 mm 3 m/s 769 mmHg 80%
    15:00 -2°C° 0.8 mm 3 m/s 769 mmHg 86%
    16:00 -1°C° 0.8 mm 3 m/s 768 mmHg 91%
    17:00 -1°C° 0.4 mm 3 m/s 767 mmHg 92%
    18:00 -1°C° 0.4 mm 3 m/s 767 mmHg 92%
    19:00 -2°C° 0.4 mm 4 m/s 766 mmHg 93%
    20:00 -1°C° 0.2 mm 4 m/s 766 mmHg 94%
    21:00 -1°C° 0.2 mm 4 m/s 765 mmHg 95%
    22:00 0°C° 0.2 mm 3 m/s 764 mmHg 97%
    23:00 0°C° 0.3 mm 3 m/s 763 mmHg 97%

    21 Februarie, Joi

    Timp Temperatura Precipitaţii Vânt Presiune Umiditate
    00:00 +1°C° 0.3 mm 3 m/s 763 mmHg 98%
    01:00 +2°C° 0.3 mm 2 m/s 762 mmHg 98%
    02:00 +2°C° 0.1 mm 2 m/s 761 mmHg 98%
    03:00 +2°C° 0.1 mm 2 m/s 760 mmHg 99%
    04:00 +3°C° 0.1 mm 1 m/s 759 mmHg 99%
    05:00 +3°C° 0.1 mm 1 m/s 759 mmHg 99%
    06:00 +3°C° 0.1 mm 1 m/s 759 mmHg 99%
    07:00 +4°C° 0.1 mm 1 m/s 759 mmHg 99%
    08:00 +4°C° 0 mm 1 m/s 759 mmHg 99%
    09:00 +5°C° 0 mm 1 m/s 760 mmHg 99%
    10:00 +5°C° 0 mm 1 m/s 760 mmHg 98%
    11:00 +5°C° 0 mm 2 m/s 760 mmHg 95%
    12:00 +6°C° 0 mm 2 m/s 760 mmHg 91%
    13:00 +7°C° 0 mm 2 m/s 760 mmHg 87%
    14:00 +8°C° 0 mm 2 m/s 760 mmHg 87%
    15:00 +8°C° 0 mm 2 m/s 761 mmHg 87%
    16:00 +8°C° 0 mm 2 m/s 761 mmHg 86%
    17:00 +7°C° 0 mm 3 m/s 762 mmHg 84%
    18:00 +5°C° 0 mm 4 m/s 763 mmHg 81%
    19:00 +3°C° 0 mm 4 m/s 764 mmHg 79%
    20:00 +3°C° 0 mm 4 m/s 765 mmHg 77%
    21:00 +1°C° 0 mm 4 m/s 766 mmHg 76%
    22:00 0°C° 0 mm 4 m/s 766 mmHg 74%
    23:00 -1°C° 0 mm 4 m/s 767 mmHg 75%
    Arată mai mult